User: anonymous
Location: Unspecified
(0.0000°N, 0.0000°E)
Time: 15:09:35
(UTC+02:00)
Language:

PSLV R/B - Orbit

View from above orbital plane
View from above orbital plane
View from above satellite
View from above satellite

Ground track
Ground track

The orbit data is extracted from the following two-line orbital elements,

1 29713U 07001E   14210.09923387  .00001026  00000-0  13297-3 0  3773
2 29713 097.6489 202.7154 0025061 318.9412 040.9915 14.82664724407700
Epoch (UTC): 29 July 2014 02:22:53
Eccentricity: 0.0025061
inclination: 97.6489°
perigee height: 603 km
apogee height: 638 km
right ascension of ascending node: 202.7154°
argument of perigee: 318.9412°
revolutions per day: 14.82664724
mean anomaly at epoch: 40.9915°
orbit number at epoch: 40770

The dashed part of the orbit path shows where the satellite is in the earth's shadow,  

DLR